{"data":{"norad_id":66099,"intl_designator":"2025-236P","name":"STARLINK-34460","alt_names":[],"object_type":"PAYLOAD","status":"ACTIVE","operator":null,"country":"US","launch_date":"2025-10-19","launch_site_code":"AFWTR","launch_vehicle":null,"mission":null,"orbit_class":"UNKNOWN","rcs_meters":null,"size_class":null,"mass_kg":null,"dimensions":null,"purposes":["comms"],"wikipedia_slug":null,"has_3d_model":false,"image_url":null,"decayed_at":null,"tle_current":{"epoch":"2026-05-25T03:18:48.414240Z","epoch_age_seconds":73275,"freshness":"FRESH","line1":"1 66099U 25236P   26145.13806035  .00023886  00000+0  81570-3 0  9992","line2":"2 66099  53.1574 108.4554 0001587 128.0754 232.0390 15.30211175 34655","mean_motion":15.30211175,"eccentricity":0.0001587,"inclination_deg":53.1574,"raan_deg":108.4554,"arg_perigee_deg":128.0754,"mean_anomaly_deg":232.039,"bstar":0.0008157,"rev_number":3465,"period_min":94.104658463235,"perigee_km":474.09408140851,"apogee_km":476.26932476487,"semimajor_km":6853.3187030867,"source":"CELESTRAK","updated_at":"2026-05-25T13:38:21.029541Z"}}}